Location: Unspecified
(0.0000°N, 0.0000°E)
Time: 20:57:25
(UTC+00:00)

Vanguard 1 Rocket - Pass Details

Date: 20 January 2020
Orbit: 650 x 4226 km, 34.3° (Epoch: 23 February)

Event Time Altitude Azimuth Distance (km) Brightness Sun altitude
Rises 18:21:25 0° 308° (NW) 8,034 12.7 -2.5°
Reaches altitude 10° 18:26:36 10° 309° (NW) 7,227 12.4 -3.7°
Maximum altitude 18:53:25 89° 38° (NE) 3,912 10.5 -10.0°
Drops below altitude 10° 19:12:39 10° 127° (SE) 5,509 11.1 -14.5°
Sets 19:15:58 0° 127° (SE) 6,153 11.3 -15.2°
